Nampa, ID

6:22 AM MST on February 07, 2016 (GMT -0700)
Nampa

Weather History for KMAN - October, 2011

Change the Weather History Date:

Wednesday, October 5, 2011

  Actual Average (KBOI) Record (KBOI)
Temperature  
Mean Temperature 54 °F 57 °F  
Max Temperature 57 °F 70 °F 86 °F (1904)
Min Temperature 50 °F 44 °F 24 °F (1974)
Degree Days  
Heating Degree Days 12 8  
Month to date heating degree days 38  
Since 1 July heating degree days 159  
Cooling Degree Days 0 1  
Month to date cooling degree days 5  
Year to date cooling degree days 939  
Growing Degree Days 4 (Base 50)    
Moisture  
Dew Point 47 °F    
Average Humidity 84    
Maximum Humidity 94    
Minimum Humidity 63    
Precipitation  
Precipitation 0.17 in 0.02 in 0.82 in (1925)
Month to date precipitation 0.10  
Year to date precipitation 8.18  
Snow  
Snow 0.00 in 0.00 in 0.00 in (2006)
Month to date snowfall 0.0  
Since 1 July snowfall 0.0  
Snow Depth -    
Sea Level Pressure  
Sea Level Pressure 29.52 in    
Wind  
Wind Speed 4 mph (SSW)    
Max Wind Speed 18 mph    
Max Gust Speed 26 mph    
Visibility 9 miles    
Events      
T = Trace of Precipitation, MM = Missing Value Source: NWS Daily Summary

Daily Weather History Graph

Daily Weather History Graph

Search for Another Location

Airport or City:

Trip Planner

Search our weather history database for the weather conditions in past years. The results will help you decide how hot, cold, wet, or windy it might be!

Date:

Astronomy

Oct. 05, 2011 Rise Set
Actual Time 7:48 AM MDT 7:20 PM MDT
Civil Twilight 7:19 AM MDT 7:48 PM MDT
Nautical Twilight 6:46 AM MDT 8:21 PM MDT
Astronomical Twilight 6:12 AM MDT 8:55 PM MDT
Moon 4:12 PM MDT (10/5) 1:28 AM MDT (10/5)
Length of Visible Light 12h 29m
Length of Day
11h 32m
Waxing Gibbous, 67% of the Moon is Illuminated
Oct 5
Waxing Gibbous
Oct 11
Full
Oct 19
Last Quarter
Oct 26
New
Nov 2
First Quarter

Hourly Weather History & Observations

Time (MDT) Temp. Windchill Dew Point Humidity Pressure Visibility Wind Dir Wind Speed Gust Speed Precip Events Conditions
12:15 AM 55.4 °F - 46.4 °F 72% 29.58 in 10.0 mi SE 8.1 mph - N/A   Overcast
12:35 AM 57.2 °F - 44.6 °F 63% 29.58 in 10.0 mi SW 5.8 mph 20.7 mph N/A   Overcast
12:55 AM 55.4 °F - 46.4 °F 72% 29.58 in 10.0 mi Calm Calm - N/A   Overcast
1:15 AM 55.4 °F - 46.4 °F 72% 29.58 in 10.0 mi Calm Calm - N/A   Overcast
1:35 AM 55.4 °F - 46.4 °F 72% 29.58 in 10.0 mi North 3.5 mph - N/A   Overcast
2:15 AM 53.6 °F - 48.2 °F 82% 29.58 in 10.0 mi Calm Calm - N/A   Overcast
2:35 AM 53.6 °F - 48.2 °F 82% 29.58 in 10.0 mi Calm Calm - N/A   Overcast
2:55 AM 53.6 °F - 48.2 °F 82% 29.58 in 10.0 mi West 3.5 mph - N/A   Overcast
3:15 AM 53.6 °F - 48.2 °F 82% 29.57 in 10.0 mi North 4.6 mph - N/A   Overcast
3:35 AM 53.6 °F - 48.2 °F 82% 29.56 in 10.0 mi North 4.6 mph - N/A   Overcast
3:55 AM 53.6 °F - 48.2 °F 82% 29.56 in 10.0 mi Calm Calm - 0.01 in   Overcast
4:15 AM 53.6 °F - 48.2 °F 82% 29.55 in 10.0 mi Calm Calm - N/A   Overcast
4:35 AM 51.8 °F - 48.2 °F 88% 29.54 in 10.0 mi NE 3.5 mph - 0.01 in   Overcast
4:55 AM 51.8 °F - 48.2 °F 88% 29.53 in 10.0 mi Calm Calm - 0.01 in   Overcast
5:15 AM 51.8 °F - 48.2 °F 88% 29.52 in 10.0 mi ENE 5.8 mph - N/A   Overcast
5:35 AM 51.8 °F - 50.0 °F 94% 29.52 in 8.0 mi ENE 5.8 mph - N/A   Overcast
5:55 AM 51.8 °F - 50.0 °F 94% 29.51 in 6.0 mi ESE 3.5 mph - 0.01 in   Overcast
6:15 AM 51.8 °F - 50.0 °F 94% 29.51 in 9.0 mi SSE 4.6 mph - N/A   Mostly Cloudy
6:35 AM 51.8 °F - 50.0 °F 94% 29.51 in 10.0 mi SE 4.6 mph - N/A   Overcast
6:55 AM 51.8 °F - 50.0 °F 94% 29.50 in 10.0 mi SE 3.5 mph - 0.01 in   Overcast
7:15 AM 51.8 °F - 50.0 °F 94% 29.50 in 10.0 mi Calm Calm - N/A   Overcast
7:35 AM 51.8 °F - 50.0 °F 94% 29.51 in 8.0 mi SW 3.5 mph - 0.01 in   Overcast
8:15 AM 51.8 °F - 50.0 °F 94% 29.49 in 9.0 mi Calm Calm - N/A   Mostly Cloudy
8:35 AM 51.8 °F - 50.0 °F 94% 29.49 in 10.0 mi Calm Calm - N/A   Mostly Cloudy
8:55 AM 51.8 °F - 50.0 °F 94% 29.49 in 10.0 mi Calm Calm - N/A   Overcast
9:15 AM 51.8 °F - 50.0 °F 94% 29.49 in 8.0 mi SSE 3.5 mph - 0.01 in   Mostly Cloudy
9:55 AM 51.8 °F - 50.0 °F 94% 29.49 in 8.0 mi South 4.6 mph - 0.03 in   Mostly Cloudy
10:15 AM 53.6 °F - 51.8 °F 94% 29.48 in 5.0 mi South 4.6 mph - 0.01 in   Mostly Cloudy
10:35 AM 51.8 °F - 50.0 °F 94% 29.48 in 5.0 mi SSE 4.6 mph - 0.02 in   Mostly Cloudy
10:55 AM 53.6 °F - 51.8 °F 94% 29.48 in 6.0 mi SE 6.9 mph - 0.02 in   Scattered Clouds
11:15 AM 53.6 °F - 51.8 °F 94% 29.48 in 5.0 mi SSE 8.1 mph - N/A   Mostly Cloudy
11:35 AM 53.6 °F - 51.8 °F 94% 29.48 in 5.0 mi SSE 6.9 mph - 0.01 in   Scattered Clouds
11:55 AM 53.6 °F - 51.8 °F 94% 29.48 in 3.0 mi SSE 5.8 mph - 0.03 in   Scattered Clouds
12:15 PM 53.6 °F - 51.8 °F 94% 29.47 in 6.0 mi SSE 5.8 mph - 0.01 in   Partly Cloudy
12:35 PM 53.6 °F - 50.0 °F 88% 29.48 in 8.0 mi South 6.9 mph - 0.02 in   Mostly Cloudy
1:35 PM 50.0 °F - 48.2 °F 94% 29.47 in 10.0 mi East 3.5 mph - N/A   Scattered Clouds
1:55 PM 51.8 °F - 48.2 °F 88% 29.48 in 10.0 mi Calm Calm - N/A   Mostly Cloudy
2:15 PM 51.8 °F - 48.2 °F 88% 29.48 in 10.0 mi Calm Calm - N/A   Overcast
2:35 PM 51.8 °F - 48.2 °F 88% 29.49 in 7.0 mi SSW 4.6 mph - N/A   Mostly Cloudy
2:55 PM 50.0 °F - 46.4 °F 87% 29.49 in 3.0 mi West 18.4 mph 26.5 mph 0.01 in   Mostly Cloudy
3:15 PM 50.0 °F - 42.8 °F 76% 29.51 in 9.0 mi West 11.5 mph - 0.01 in   Mostly Cloudy
3:35 PM 50.0 °F - 42.8 °F 76% 29.50 in 10.0 mi West 9.2 mph - 0.01 in   Overcast
3:55 PM 50.0 °F - 42.8 °F 76% 29.51 in 10.0 mi WNW 12.7 mph - 0.01 in   Overcast
4:15 PM 50.0 °F - 42.8 °F 76% 29.52 in 10.0 mi WNW 12.7 mph 16.1 mph N/A   Overcast
4:35 PM 50.0 °F - 41.0 °F 71% 29.54 in 10.0 mi West 10.4 mph - N/A   Overcast
4:55 PM 50.0 °F - 41.0 °F 71% 29.55 in 10.0 mi West 9.2 mph - N/A   Overcast
5:15 PM 50.0 °F - 41.0 °F 71% 29.56 in 10.0 mi West 4.6 mph - N/A   Overcast
5:35 PM 50.0 °F - 39.2 °F 66% 29.56 in 10.0 mi WNW 6.9 mph - N/A   Overcast
5:55 PM 50.0 °F - 39.2 °F 66% 29.56 in 10.0 mi WNW 4.6 mph - N/A   Overcast
6:15 PM 50.0 °F - 39.2 °F 66% 29.56 in 10.0 mi NNE 3.5 mph - N/A   Scattered Clouds
6:35 PM 50.0 °F - 41.0 °F 71% 29.56 in 5.0 mi NNE 4.6 mph - N/A   Clear
6:55 PM 50.0 °F - 41.0 °F 71% 29.56 in 3.0 mi NNE 4.6 mph - N/A   Clear
7:15 PM 48.2 °F - 41.0 °F 76% 29.58 in 5.0 mi NE 3.5 mph - N/A   Clear
7:35 PM 48.2 °F - 42.8 °F 82% 29.58 in 7.0 mi East 3.5 mph - N/A   Clear
7:55 PM 48.2 °F - 44.6 °F 87% 29.59 in 10.0 mi Calm Calm - N/A   Partly Cloudy
8:15 PM 48.2 °F - 44.6 °F 87% 29.59 in 10.0 mi Calm Calm - N/A   Partly Cloudy
8:35 PM 46.4 °F 45.2 °F 44.6 °F 93% 29.60 in 10.0 mi South 3.5 mph - N/A   Clear
8:55 PM 46.4 °F - 44.6 °F 93% 29.61 in 10.0 mi Calm Calm - N/A   Mostly Cloudy
9:15 PM 46.4 °F - 44.6 °F 93% 29.61 in 10.0 mi Calm Calm - N/A   Mostly Cloudy
9:55 PM 48.2 °F - 41.0 °F 76% 29.63 in 10.0 mi WSW 9.2 mph - N/A   Clear
10:15 PM 46.4 °F 42.9 °F 41.0 °F 81% 29.63 in 10.0 mi West 6.9 mph - N/A   Scattered Clouds
10:35 PM 46.4 °F 43.5 °F 39.2 °F 76% 29.63 in 10.0 mi West 5.8 mph - N/A   Partly Cloudy
10:55 PM 46.4 °F 43.5 °F 39.2 °F 76% 29.64 in 10.0 mi West 5.8 mph - N/A   Clear
11:15 PM 46.4 °F 44.3 °F 39.2 °F 76% 29.65 in 10.0 mi WNW 4.6 mph - N/A   Scattered Clouds
11:35 PM 46.4 °F 43.5 °F 39.2 °F 76% 29.64 in 10.0 mi WNW 5.8 mph - N/A   Mostly Cloudy
11:55 PM 46.4 °F 43.5 °F 39.2 °F 76% 29.65 in 10.0 mi WNW 5.8 mph - N/A   Scattered Clouds